Weather in Posyolok Sakharnogo Zavoda

Russia / Lipetsk Oblast     52°54′24″N   39°03′57″E
temp.,
°C
wind,
m/s
gust,
m/s
humid.,
%
clouds,
%
prec.,
mm/h
press.,
hPa
HPBL,
m
29 july, thu
thu2900:00+19ssw377696 0.2 1012171
03:00+17sw36846 0.2 1011110
06:00+17wsw38840 0.0 1010214
09:00+24w56616 0.0 1009689
12:00+28w57463 0.0 10091932
15:00+28w5744100 0.1 10081603
18:00+24wsw365594 0.0 1008156
21:00+22wsw336538 0.0 100827
30 july, fri
fri3000:00+22ssw346232 0.0 100880
03:00+19sw357136 0.0 100764
06:00+21wsw2468100 0.0 100781
09:00+23wsw236294 0.3 1007379
12:00+28w46505 0.1 10071295
15:00+28wnw685065 0.3 10061488
18:00+27nw575019 0.0 10051714
21:00+23nw36684 0.0 1007198
31 july, sat
sat3100:00+19wnw35801 0.0 100870
03:00+18nw34763 0.0 100847
06:00+18wnw36750 0.0 1009140
09:00+25w34425 0.0 1010760
12:00+29w573233 0.0 10092647
15:00+28w593460 0.0 10092243
18:00+29wnw583519 0.0 10092467
21:00+22wnw33555 0.0 101031
1 august, sun
sun100:00+19wnw226642 0.0 101121
03:00+17wsw227316 0.0 101211
06:00+19sw116993 0.0 101217
09:00+26ssw464641 0.0 1012576
12:00+31sw78315 0.0 10112702
15:00+33sw79275 0.0 10103227
18:00+32sw673093 0.0 10092074
21:00+25nnw3849100 0.0 1011194
2 august, mon
mon200:00+23e2358100 0.0 101032
03:00+21ene226751 0.0 101012
06:00+21ese34655 0.0 100976
09:00+28ssw46404 0.0 1008583
12:00+33ssw672716 0.0 10072879
15:00+34sw7826100 0.0 10063088
18:00+32ssw47315 0.0 10041699
21:00+22s8196945 0.4 1005509